"read_dt","SO2 (ppb)","flags","PMT voltage (V)","lamp voltage (V)","lamp intensity (Hz)","internal temp (C)","react chamber temp (C)","sample flow (l/min)","pres (mmHg)","SO2 bkg (ppb)","SO2 coefficient"
2014-12-24 00:00:00,2073E-3,5C000000,-0724,0838,12075,027.9,045.4,0.450,735.1,01.18,0.508
2014-12-24 00:01:00,2043E-3,5C000000,-0724,0838,12104,028.0,045.5,0.450,735.1,01.18,0.508
2014-12-24 00:02:00,2125E-3,5C000000,-0724,0837,11989,028.0,045.4,0.449,735.0,01.18,0.508
2014-12-24 00:03:00,1989E-3,5C000000,-0724,0837,12147,028.0,045.4,0.450,735.0,01.18,0.508
2014-12-24 00:04:00,2084E-3,5C000000,-0724,0838,12103,028.1,045.4,0.449,735.0,01.18,0.508
2014-12-24 00:05:00,1900E-3,5C000000,-0724,0837,12023,028.1,045.4,0.449,735.1,01.18,0.508
2014-12-24 00:06:00,1897E-3,5C000000,-0724,0838,12123,028.1,045.4,0.450,735.0,01.18,0.508
2014-12-24 00:07:00,1951E-3,5C000000,-0724,0837,12034,028.2,045.4,0.449,735.0,01.18,0.508
2014-12-24 00:08:00,2069E-3,5C000000,-0724,0838,12163,028.2,045.4,0.449,735.0,01.18,0.508
2014-12-24 00:09:00,1981E-3,5C000000,-0724,0837,12166,028.2,045.4,0.450,735.0,01.18,0.508
2014-12-24 00:10:00,1979E-3,5C000000,-0724,0837,12173,028.3,045.4,0.449,734.8,01.18,0.508
2014-12-24 00:11:00,1937E-3,5C000000,-0724,0838,12137,028.3,045.4,0.449,734.8,01.18,0.508
2014-12-24 00:12:00,1984E-3,5C000000,-0724,0837,12122,028.4,045.4,0.449,734.8,01.18,0.508
2014-12-24 00:13:00,2102E-3,5C000000,-0724,0838,12251,028.4,045.5,0.449,734.7,01.18,0.508
2014-12-24 00:14:00,2085E-3,5C000000,-0724,0838,11989,028.4,045.4,0.449,734.8,01.18,0.508
2014-12-24 00:15:00,2218E-3,5C000000,-0724,0837,12086,028.5,045.5,0.449,734.8,01.18,0.508
2014-12-24 00:16:00,2093E-3,5C000000,-0724,0837,11962,028.5,045.5,0.449,734.8,01.18,0.508
2014-12-24 00:17:00,1970E-3,5C000000,-0724,0837,12026,028.5,045.5,0.449,734.8,01.18,0.508
2014-12-24 00:18:00,1978E-3,5C000000,-0724,0837,12225,028.6,045.5,0.449,734.8,01.18,0.508
2014-12-24 00:19:00,1861E-3,5C000000,-0724,0837,12146,028.6,045.4,0.449,734.8,01.18,0.508
2014-12-24 00:20:00,1922E-3,5C000000,-0724,0837,12124,028.6,045.4,0.449,734.8,01.18,0.508
2014-12-24 00:21:00,1907E-3,5C000000,-0724,0838,12161,028.7,045.5,0.449,734.9,01.18,0.508
2014-12-24 00:22:00,1955E-3,5C000000,-0724,0837,12224,028.7,045.5,0.449,734.9,01.18,0.508
2014-12-24 00:23:00,2097E-3,5C000000,-0724,0837,12073,028.7,045.5,0.449,734.8,01.18,0.508
2014-12-24 00:24:00,1978E-3,5C000000,-0724,0837,12081,028.7,045.5,0.448,734.7,01.18,0.508
2014-12-24 00:25:00,1932E-3,5C000000,-0724,0837,11973,028.7,045.5,0.448,734.7,01.18,0.508
2014-12-24 00:26:00,2120E-3,5C000000,-0724,0837,12148,028.6,045.5,0.449,734.7,01.18,0.508
2014-12-24 00:27:00,2043E-3,5C000000,-0724,0838,12204,028.6,045.4,0.449,734.7,01.18,0.508
2014-12-24 00:28:00,2154E-3,5C000000,-0724,0838,12246,028.5,045.4,0.449,734.7,01.18,0.508
2014-12-24 00:29:00,2032E-3,5C000000,-0724,0837,12140,028.5,045.5,0.448,734.7,01.18,0.508
2014-12-24 00:30:00,2172E-3,5C000000,-0724,0837,12142,028.4,045.4,0.448,734.7,01.18,0.508
2014-12-24 00:31:00,2157E-3,5C000000,-0724,0837,12145,028.3,045.5,0.449,734.7,01.18,0.508
2014-12-24 00:32:00,2023E-3,5C000000,-0724,0837,12144,028.2,045.4,0.449,734.7,01.18,0.508
2014-12-24 00:33:00,2009E-3,5C000000,-0724,0837,12174,028.1,045.4,0.449,734.7,01.18,0.508
2014-12-24 00:34:00,2082E-3,5C000000,-0724,0837,12085,028.1,045.4,0.449,734.7,01.18,0.508
2014-12-24 00:35:00,1996E-3,5C000000,-0724,0837,12193,028.1,045.4,0.449,734.8,01.18,0.508
2014-12-24 00:36:00,1959E-3,5C000000,-0724,0837,12186,028.1,045.4,0.449,734.8,01.18,0.508
2014-12-24 00:37:00,2001E-3,5C000000,-0724,0837,12071,028.1,045.4,0.449,734.7,01.18,0.508
2014-12-24 00:38:00,2067E-3,5C000000,-0724,0836,12047,028.2,045.4,0.449,734.7,01.18,0.508
2014-12-24 00:39:00,1988E-3,5C000000,-0724,0836,12142,028.2,045.4,0.449,734.8,01.18,0.508
2014-12-24 00:40:00,1920E-3,5C000000,-0724,0837,12086,028.2,045.5,0.449,734.8,01.18,0.508
2014-12-24 00:41:00,2004E-3,5C000000,-0724,0837,12166,028.2,045.4,0.449,734.6,01.18,0.508
2014-12-24 00:42:00,2025E-3,5C000000,-0724,0837,12128,028.3,045.4,0.449,734.6,01.18,0.508
2014-12-24 00:43:00,2120E-3,5C000000,-0724,0837,12092,028.3,045.5,0.449,734.6,01.18,0.508
2014-12-24 00:44:00,2034E-3,5C000000,-0724,0837,11980,028.3,045.5,0.449,734.6,01.18,0.508
2014-12-24 00:45:00,2004E-3,5C000000,-0724,0838,12046,028.4,045.4,0.449,734.6,01.18,0.508
2014-12-24 00:46:00,2153E-3,5C000000,-0724,0837,12159,028.4,045.5,0.449,734.5,01.18,0.508
2014-12-24 00:47:00,2018E-3,5C000000,-0724,0837,12133,028.4,045.4,0.449,734.7,01.18,0.508
2014-12-24 00:48:00,2122E-3,5C000000,-0724,0838,12018,028.5,045.4,0.449,734.7,01.18,0.508
2014-12-24 00:49:00,2031E-3,5C000000,-0724,0838,12082,028.5,045.4,0.449,734.6,01.18,0.508
2014-12-24 00:50:00,2016E-3,5C000000,-0724,0837,12169,028.5,045.5,0.449,734.8,01.18,0.508
2014-12-24 00:51:00,2029E-3,5C000000,-0724,0837,12163,028.5,045.4,0.449,734.8,01.18,0.508
2014-12-24 00:52:00,2105E-3,5C000000,-0724,0837,12116,028.6,045.4,0.449,734.8,01.18,0.508
2014-12-24 00:53:00,2188E-3,5C000000,-0724,0837,12109,028.6,045.5,0.449,734.8,01.18,0.508
2014-12-24 00:54:00,2008E-3,5C000000,-0724,0837,12122,028.6,045.5,0.449,734.8,01.18,0.508
2014-12-24 00:55:00,1867E-3,5C000000,-0724,0837,12185,028.6,045.4,0.449,734.8,01.18,0.508
2014-12-24 00:56:00,2027E-3,5C000000,-0724,0837,12066,028.7,045.4,0.448,734.8,01.18,0.508
2014-12-24 00:57:00,2007E-3,5C000000,-0724,0837,12108,028.7,045.5,0.449,734.8,01.18,0.508
2014-12-24 00:58:00,2091E-3,5C000000,-0724,0837,12193,028.7,045.5,0.449,734.8,01.18,0.508
2014-12-24 00:59:00,2043E-3,5C000000,-0724,0836,12150,028.7,045.5,0.449,734.8,01.18,0.508
2014-12-24 01:00:00,1936E-3,5C000000,-0724,0837,12182,028.7,045.5,0.449,734.7,01.18,0.508
2014-12-24 01:01:00,2005E-3,5C000000,-0724,0837,12151,028.7,045.4,0.448,734.8,01.18,0.508
2014-12-24 01:02:00,1965E-3,5C000000,-0724,0838,12171,028.6,045.5,0.448,734.8,01.18,0.508
2014-12-24 01:03:00,1976E-3,5C000000,-0724,0838,12109,028.6,045.4,0.448,734.8,01.18,0.508
2014-12-24 01:04:00,1953E-3,5C000000,-0724,0838,12235,028.5,045.4,0.449,734.7,01.18,0.508
2014-12-24 01:05:00,2122E-3,5C000000,-0724,0837,12122,028.5,045.5,0.449,734.8,01.18,0.508
2014-12-24 01:06:00,2025E-3,5C000000,-0724,0837,12177,028.4,045.4,0.449,734.9,01.18,0.508
2014-12-24 01:07:00,1952E-3,5C000000,-0724,0837,12218,028.3,045.4,0.449,734.8,01.18,0.508
2014-12-24 01:08:00,2056E-3,5C000000,-0724,0838,12129,028.2,045.4,0.449,734.8,01.18,0.508
2014-12-24 01:09:00,1986E-3,5C000000,-0724,0837,12182,028.2,045.5,0.449,734.8,01.18,0.508
2014-12-24 01:10:00,1981E-3,5C000000,-0724,0837,12221,028.1,045.4,0.449,734.8,01.18,0.508
2014-12-24 01:11:00,1983E-3,5C000000,-0724,0837,12263,028.1,045.4,0.449,734.8,01.18,0.508
2014-12-24 01:12:00,2191E-3,5C000000,-0724,0837,12187,028.1,045.4,0.449,734.8,01.18,0.508
2014-12-24 01:13:00,1969E-3,5C000000,-0724,0837,12159,028.1,045.4,0.449,734.8,01.18,0.508
2014-12-24 01:14:00,2037E-3,5C000000,-0724,0837,12089,028.2,045.4,0.449,734.8,01.18,0.508
2014-12-24 01:15:00,2018E-3,5C000000,-0724,0837,11999,028.2,045.5,0.449,734.8,01.18,0.508
2014-12-24 01:16:00,1901E-3,5C000000,-0724,0837,12098,028.2,045.4,0.449,734.8,01.18,0.508
2014-12-24 01:17:00,1961E-3,5C000000,-0724,0837,12077,028.3,045.4,0.450,734.8,01.18,0.508
2014-12-24 01:18:00,2103E-3,5C000000,-0724,0837,12061,028.3,045.4,0.449,734.8,01.18,0.508
2014-12-24 01:19:00,1920E-3,5C000000,-0724,0837,12226,028.3,045.4,0.449,734.7,01.18,0.508
2014-12-24 01:20:00,2080E-3,5C000000,-0724,0837,12169,028.3,045.4,0.449,734.7,01.18,0.508
2014-12-24 01:21:00,1929E-3,5C000000,-0724,0838,12242,028.4,045.4,0.449,734.4,01.18,0.508
2014-12-24 01:22:00,2072E-3,5C000000,-0724,0837,12125,028.4,045.4,0.449,734.6,01.18,0.508
2014-12-24 01:23:00,2043E-3,5C000000,-0724,0838,12126,028.4,045.5,0.449,734.7,01.18,0.508
2014-12-24 01:24:00,1952E-3,5C000000,-0724,0838,12257,028.4,045.5,0.449,734.5,01.18,0.508
2014-12-24 01:25:00,1944E-3,5C000000,-0724,0837,12160,028.5,045.5,0.449,734.6,01.18,0.508
2014-12-24 01:26:00,1989E-3,5C000000,-0724,0838,11993,028.5,045.4,0.449,734.6,01.18,0.508
2014-12-24 01:27:00,1925E-3,5C000000,-0724,0837,12042,028.5,045.5,0.449,734.5,01.18,0.508
2014-12-24 01:28:00,2080E-3,5C000000,-0724,0838,12154,028.5,045.5,0.449,734.4,01.18,0.508
2014-12-24 01:29:00,1955E-3,5C000000,-0724,0838,12140,028.6,045.5,0.448,734.5,01.18,0.508
2014-12-24 01:30:00,2019E-3,5C000000,-0724,0838,12272,028.6,045.4,0.448,734.5,01.18,0.508
2014-12-24 01:31:00,2177E-3,5C000000,-0724,0837,12080,028.6,045.5,0.449,734.4,01.18,0.508
2014-12-24 01:32:00,1941E-3,5C000000,-0724,0837,12095,028.6,045.5,0.449,734.5,01.18,0.508
2014-12-24 01:33:00,2073E-3,5C000000,-0724,0838,12097,028.6,045.4,0.449,734.4,01.18,0.508
2014-12-24 01:34:00,2046E-3,5C000000,-0724,0837,12243,028.7,045.4,0.448,734.5,01.18,0.508
2014-12-24 01:35:00,1987E-3,5C000000,-0724,0838,12194,028.7,045.4,0.448,734.5,01.18,0.508
2014-12-24 01:36:00,1997E-3,5C000000,-0724,0837,12218,028.7,045.5,0.449,734.4,01.18,0.508
2014-12-24 01:37:00,1903E-3,5C000000,-0724,0838,12170,028.7,045.4,0.449,734.4,01.18,0.508
2014-12-24 01:38:00,2021E-3,5C000000,-0724,0837,12218,028.7,045.4,0.449,734.5,01.18,0.508
2014-12-24 01:39:00,2029E-3,5C000000,-0724,0838,12065,028.8,045.5,0.448,734.5,01.18,0.508
2014-12-24 01:40:00,2054E-3,5C000000,-0724,0837,12130,028.8,045.5,0.448,734.5,01.18,0.508
2014-12-24 01:41:00,2132E-3,5C000000,-0724,0837,12195,028.8,045.5,0.448,734.4,01.18,0.508
2014-12-24 01:42:00,2025E-3,5C000000,-0724,0837,12075,028.8,045.5,0.449,734.5,01.18,0.508
2014-12-24 01:43:00,1893E-3,5C000000,-0724,0836,12206,028.8,045.5,0.449,734.6,01.18,0.508
2014-12-24 01:44:00,1904E-3,5C000000,-0724,0837,12183,028.8,045.5,0.448,734.7,01.18,0.508
2014-12-24 01:45:00,1965E-3,5C000000,-0724,0836,12078,028.8,045.5,0.448,734.7,01.18,0.508
2014-12-24 01:46:00,2163E-3,5C000000,-0724,0837,12008,028.8,045.5,0.448,734.6,01.18,0.508
2014-12-24 01:47:00,1908E-3,5C000000,-0724,0837,12019,028.8,045.5,0.448,734.5,01.18,0.508
2014-12-24 01:48:00,1998E-3,5C000000,-0724,0837,12145,028.8,045.5,0.448,734.6,01.18,0.508
2014-12-24 01:49:00,1986E-3,5C000000,-0724,0837,11931,028.7,045.5,0.449,734.6,01.18,0.508
2014-12-24 01:50:00,2003E-3,5C000000,-0724,0837,12169,028.6,045.4,0.449,734.7,01.18,0.508
2014-12-24 01:51:00,2070E-3,5C000000,-0724,0837,12137,028.5,045.4,0.449,734.6,01.18,0.508
2014-12-24 01:52:00,2120E-3,5C000000,-0724,0837,12046,028.4,045.5,0.448,734.6,01.18,0.508
2014-12-24 01:53:00,1936E-3,5C000000,-0724,0837,12036,028.4,045.4,0.448,734.5,01.18,0.508
2014-12-24 01:54:00,2009E-3,5C000000,-0724,0836,12017,028.3,045.4,0.449,734.6,01.18,0.508
2014-12-24 01:55:00,2100E-3,5C000000,-0724,0837,12090,028.2,045.4,0.449,734.6,01.18,0.508
2014-12-24 01:56:00,1887E-3,5C000000,-0724,0837,12042,028.2,045.5,0.449,734.5,01.18,0.508
2014-12-24 01:57:00,1889E-3,5C000000,-0724,0837,12156,028.2,045.4,0.449,734.5,01.18,0.508
2014-12-24 01:58:00,1947E-3,5C000000,-0724,0837,12110,028.2,045.4,0.449,734.5,01.18,0.508
2014-12-24 01:59:00,1932E-3,5C000000,-0724,0836,12076,028.2,045.4,0.449,734.3,01.18,0.508
2014-12-24 02:00:00,2083E-3,5C000000,-0724,0838,11961,028.2,045.4,0.449,734.4,01.18,0.508
2014-12-24 02:01:00,1969E-3,5C000000,-0724,0838,12092,028.3,045.4,0.449,734.4,01.18,0.508
2014-12-24 02:02:00,2060E-3,5C000000,-0724,0837,12098,028.3,045.4,0.449,734.4,01.18,0.508
2014-12-24 02:03:00,1978E-3,5C000000,-0724,0837,12145,028.3,045.4,0.449,734.5,01.18,0.508
2014-12-24 02:04:00,2017E-3,5C000000,-0724,0837,12245,028.3,045.4,0.449,734.5,01.18,0.508
2014-12-24 02:05:00,1979E-3,5C000000,-0724,0837,12096,028.3,045.4,0.449,734.4,01.18,0.508
2014-12-24 02:06:00,2065E-3,5C000000,-0724,0837,12311,028.4,045.4,0.449,734.4,01.18,0.508
2014-12-24 02:07:00,2111E-3,5C000000,-0724,0837,12176,028.4,045.4,0.449,734.5,01.18,0.508
2014-12-24 02:08:00,2001E-3,5C000000,-0724,0838,12100,028.4,045.4,0.449,734.4,01.18,0.508
2014-12-24 02:09:00,1914E-3,5C000000,-0724,0836,12132,028.4,045.4,0.449,734.3,01.18,0.508
2014-12-24 02:10:00,1991E-3,5C000000,-0724,0838,12199,028.5,045.4,0.449,734.5,01.18,0.508
2014-12-24 02:11:00,2010E-3,5C000000,-0724,0837,12272,028.5,045.4,0.449,734.5,01.18,0.508
2014-12-24 02:12:00,2094E-3,5C000000,-0724,0837,12306,028.5,045.4,0.449,734.3,01.18,0.508
2014-12-24 02:13:00,2012E-3,5C000000,-0724,0837,12153,028.5,045.4,0.449,734.5,01.18,0.508
2014-12-24 02:14:00,2062E-3,5C000000,-0724,0838,11927,028.5,045.5,0.449,734.4,01.18,0.508
2014-12-24 02:15:00,1970E-3,5C000000,-0724,0837,12133,028.5,045.4,0.449,734.5,01.18,0.508
2014-12-24 02:16:00,2059E-3,5C000000,-0724,0837,12274,028.6,045.4,0.449,734.4,01.18,0.508
2014-12-24 02:17:00,1945E-3,5C000000,-0724,0837,12275,028.6,045.4,0.449,734.4,01.18,0.508
2014-12-24 02:18:00,1862E-3,5C000000,-0724,0837,12296,028.6,045.5,0.449,734.4,01.18,0.508
2014-12-24 02:19:00,1957E-3,5C000000,-0724,0838,12211,028.6,045.5,0.448,734.4,01.18,0.508
2014-12-24 02:20:00,1838E-3,5C000000,-0724,0838,12046,028.6,045.4,0.448,734.3,01.18,0.508
2014-12-24 02:21:00,2096E-3,5C000000,-0724,0838,12154,028.7,045.5,0.448,734.3,01.18,0.508
2014-12-24 02:22:00,2023E-3,5C000000,-0724,0837,12077,028.7,045.5,0.449,734.4,01.18,0.508
2014-12-24 02:23:00,1994E-3,5C000000,-0724,0838,12263,028.7,045.5,0.449,734.5,01.18,0.508
2014-12-24 02:24:00,1984E-3,5C000000,-0724,0837,12008,028.7,045.5,0.449,734.3,01.18,0.508
2014-12-24 02:25:00,1989E-3,5C000000,-0724,0838,12096,028.7,045.5,0.449,734.5,01.18,0.508
2014-12-24 02:26:00,1966E-3,5C000000,-0724,0837,12102,028.7,045.4,0.449,734.6,01.18,0.508
2014-12-24 02:27:00,2089E-3,5C000000,-0724,0838,12167,028.7,045.5,0.448,734.5,01.18,0.508
2014-12-24 02:28:00,1985E-3,5C000000,-0724,0836,12024,028.7,045.4,0.448,734.6,01.18,0.508
2014-12-24 02:29:00,1988E-3,5C000000,-0724,0836,12159,028.7,045.4,0.448,734.5,01.18,0.508
2014-12-24 02:30:00,1940E-3,5C000000,-0724,0836,12101,028.8,045.4,0.448,734.5,01.18,0.508
2014-12-24 02:31:00,1976E-3,5C000000,-0724,0837,12017,028.8,045.4,0.449,734.5,01.18,0.508
2014-12-24 02:32:00,1993E-3,5C000000,-0724,0837,12313,028.7,045.5,0.449,734.5,01.18,0.508
2014-12-24 02:33:00,1859E-3,5C000000,-0724,0836,12011,028.8,045.4,0.449,734.4,01.18,0.508
2014-12-24 02:34:00,1923E-3,5C000000,-0724,0836,12054,028.8,045.4,0.448,734.3,01.18,0.508
2014-12-24 02:35:00,2100E-3,5C000000,-0724,0837,12261,028.8,045.4,0.448,734.3,01.18,0.508
2014-12-24 02:36:00,1953E-3,5C000000,-0724,0837,12042,028.8,045.4,0.448,734.2,01.18,0.508
2014-12-24 02:37:00,1973E-3,5C000000,-0724,0837,12188,028.8,045.4,0.448,734.1,01.19,0.508
2014-12-24 02:38:00,2096E-3,5C000000,-0724,0836,12232,028.8,045.4,0.448,734.2,01.18,0.508
2014-12-24 02:39:00,1953E-3,5C000000,-0724,0837,12098,028.8,045.5,0.448,734.2,01.18,0.508
2014-12-24 02:40:00,1922E-3,5C000000,-0724,0837,12201,028.8,045.5,0.448,734.3,01.18,0.508
2014-12-24 02:41:00,2035E-3,5C000000,-0724,0837,12016,028.8,045.5,0.449,734.3,01.18,0.508
2014-12-24 02:42:00,2026E-3,5C000000,-0724,0837,12190,028.8,045.5,0.448,734.3,01.18,0.508
2014-12-24 02:43:00,1999E-3,5C000000,-0724,0837,12096,028.8,045.5,0.448,734.3,01.18,0.508
2014-12-24 02:44:00,2055E-3,5C000000,-0724,0837,12158,028.8,045.5,0.448,734.3,01.18,0.508
2014-12-24 02:45:00,2047E-3,5C000000,-0724,0836,12144,028.8,045.5,0.448,734.2,01.18,0.508
2014-12-24 02:46:00,1983E-3,5C000000,-0724,0837,11923,028.8,045.4,0.448,734.1,01.19,0.508
2014-12-24 02:47:00,1976E-3,5C000000,-0724,0837,11999,028.8,045.4,0.448,734.2,01.18,0.508
2014-12-24 02:48:00,1974E-3,5C000000,-0724,0837,12193,028.8,045.4,0.448,734.2,01.18,0.508
2014-12-24 02:49:00,2019E-3,5C000000,-0724,0838,12037,028.8,045.4,0.449,734.0,01.19,0.508
2014-12-24 02:50:00,2158E-3,5C000000,-0724,0837,12240,028.8,045.4,0.448,733.9,01.19,0.508
2014-12-24 02:51:00,2032E-3,5C000000,-0724,0837,12253,028.7,045.5,0.448,733.9,01.19,0.508
2014-12-24 02:52:00,1994E-3,5C000000,-0724,0837,12168,028.7,045.5,0.448,733.9,01.19,0.508
2014-12-24 02:53:00,2052E-3,5C000000,-0724,0837,11989,028.7,045.5,0.448,733.9,01.19,0.508
2014-12-24 02:54:00,2149E-3,5C000000,-0724,0837,12262,028.6,045.4,0.449,733.9,01.19,0.508
2014-12-24 02:55:00,2077E-3,5C000000,-0724,0837,12065,028.6,045.5,0.448,733.8,01.19,0.508
2014-12-24 02:56:00,2085E-3,5C000000,-0724,0836,11884,028.6,045.5,0.448,733.8,01.19,0.508
2014-12-24 02:57:00,2102E-3,5C000000,-0724,0836,11997,028.6,045.5,0.448,733.6,01.19,0.508
2014-12-24 02:58:00,1951E-3,5C000000,-0724,0836,12140,028.5,045.5,0.448,733.7,01.19,0.508
2014-12-24 02:59:00,2035E-3,5C000000,-0724,0837,12051,028.5,045.5,0.449,733.8,01.19,0.508
2014-12-24 03:00:00,1911E-3,5C000000,-0724,0836,12172,028.5,045.5,0.448,733.7,01.19,0.508
2014-12-24 03:01:00,2033E-3,5C000000,-0724,0837,12126,028.5,045.4,0.448,733.7,01.19,0.508
2014-12-24 03:02:00,2055E-3,5C000000,-0724,0836,11910,028.5,045.4,0.448,733.7,01.19,0.508
2014-12-24 03:03:00,1958E-3,5C000000,-0724,0837,11970,028.6,045.4,0.449,733.7,01.19,0.508
2014-12-24 03:04:00,2095E-3,5C000000,-0724,0836,12219,028.6,045.4,0.449,733.7,01.19,0.508
2014-12-24 03:05:00,2069E-3,5C000000,-0724,0836,11942,028.6,045.4,0.448,734.0,01.19,0.508
2014-12-24 03:06:00,2079E-3,5C000000,-0724,0838,12281,028.6,045.4,0.448,733.9,01.19,0.508
2014-12-24 03:07:00,1968E-3,5C000000,-0724,0837,12038,028.6,045.5,0.448,733.8,01.19,0.508
2014-12-24 03:08:00,2088E-3,5C000000,-0724,0837,12092,028.5,045.5,0.448,733.8,01.19,0.508
2014-12-24 03:09:00,2086E-3,5C000000,-0724,0836,11992,028.5,045.4,0.448,733.9,01.19,0.508
2014-12-24 03:10:00,1929E-3,5C000000,-0724,0838,12134,028.5,045.4,0.448,733.7,01.19,0.508
2014-12-24 03:11:00,1860E-3,5C000000,-0724,0837,12255,028.5,045.4,0.448,733.9,01.19,0.508
2014-12-24 03:12:00,1881E-3,5C000000,-0724,0836,12232,028.5,045.5,0.448,734.0,01.19,0.508
2014-12-24 03:13:00,2019E-3,5C000000,-0724,0837,12130,028.5,045.5,0.449,733.8,01.19,0.508
2014-12-24 03:14:00,2035E-3,5C000000,-0724,0837,12167,028.5,045.5,0.448,733.6,01.19,0.508
2014-12-24 03:15:00,1974E-3,5C000000,-0724,0836,12083,028.5,045.5,0.448,733.6,01.19,0.508
2014-12-24 03:16:00,1957E-3,5C000000,-0724,0837,12129,028.5,045.4,0.448,733.5,01.19,0.508
2014-12-24 03:17:00,2019E-3,5C000000,-0724,0837,12065,028.5,045.4,0.448,733.8,01.19,0.508
2014-12-24 03:18:00,1970E-3,5C000000,-0724,0837,12183,028.5,045.4,0.448,733.8,01.19,0.508
2014-12-24 03:19:00,2085E-3,5C000000,-0724,0837,12209,028.5,045.4,0.448,733.7,01.19,0.508
2014-12-24 03:20:00,1923E-3,5C000000,-0724,0836,12051,028.5,045.4,0.448,733.8,01.19,0.508
2014-12-24 03:21:00,2006E-3,5C000000,-0724,0837,12097,028.5,045.4,0.448,733.9,01.19,0.508
2014-12-24 03:22:00,2088E-3,5C000000,-0724,0837,12224,028.5,045.4,0.448,733.9,01.19,0.508
2014-12-24 03:23:00,1946E-3,5C000000,-0724,0837,12226,028.5,045.4,0.448,733.9,01.19,0.508
2014-12-24 03:24:00,1945E-3,5C000000,-0724,0836,12162,028.5,045.4,0.448,734.0,01.19,0.508
2014-12-24 03:25:00,2042E-3,5C000000,-0724,0836,12176,028.5,045.4,0.448,733.8,01.19,0.508
2014-12-24 03:26:00,2020E-3,5C000000,-0724,0837,12185,028.5,045.5,0.448,734.0,01.19,0.508
2014-12-24 03:27:00,2047E-3,5C000000,-0724,0836,12272,028.5,045.4,0.448,733.8,01.19,0.508
2014-12-24 03:28:00,1929E-3,5C000000,-0724,0837,12108,028.5,045.4,0.448,733.7,01.19,0.508
2014-12-24 03:29:00,2106E-3,5C000000,-0724,0838,12246,028.5,045.4,0.448,733.8,01.19,0.508
2014-12-24 03:30:00,1873E-3,5C000000,-0724,0838,12084,028.5,045.4,0.448,733.9,01.19,0.508
2014-12-24 03:31:00,1939E-3,5C000000,-0724,0838,12252,028.4,045.4,0.448,733.9,01.19,0.508
2014-12-24 03:32:00,2086E-3,5C000000,-0724,0838,12223,028.4,045.4,0.448,733.9,01.19,0.508
2014-12-24 03:33:00,1992E-3,5C000000,-0724,0836,12220,028.5,045.5,0.448,733.7,01.19,0.508
2014-12-24 03:34:00,2066E-3,5C000000,-0724,0838,12206,028.5,045.4,0.448,733.5,01.19,0.508
2014-12-24 03:35:00,1964E-3,5C000000,-0724,0837,12165,028.4,045.4,0.448,733.1,01.19,0.508
2014-12-24 03:36:00,2041E-3,5C000000,-0724,0837,12147,028.4,045.4,0.448,733.1,01.19,0.508
2014-12-24 03:37:00,2045E-3,5C000000,-0724,0837,12261,028.4,045.4,0.448,733.4,01.19,0.508
2014-12-24 03:38:00,1954E-3,5C000000,-0724,0836,12194,028.4,045.4,0.448,733.5,01.19,0.508
2014-12-24 03:39:00,1806E-3,5C000000,-0724,0837,12156,028.4,045.4,0.448,733.3,01.19,0.508
2014-12-24 03:40:00,1925E-3,5C000000,-0724,0837,12065,028.4,045.4,0.448,733.5,01.19,0.508
2014-12-24 03:41:00,2088E-3,5C000000,-0724,0837,12087,028.4,045.5,0.448,733.0,01.19,0.508
2014-12-24 03:42:00,1930E-3,5C000000,-0724,0837,12303,028.4,045.4,0.448,733.2,01.19,0.508
2014-12-24 03:43:00,2087E-3,5C000000,-0724,0838,12036,028.4,045.5,0.448,732.6,01.19,0.508
2014-12-24 03:44:00,2014E-3,5C000000,-0724,0836,12179,028.4,045.4,0.448,733.0,01.19,0.508
2014-12-24 03:45:00,1924E-3,5C000000,-0724,0837,12225,028.3,045.4,0.448,733.3,01.19,0.508
2014-12-24 03:46:00,1922E-3,5C000000,-0724,0837,12109,028.3,045.4,0.448,733.2,01.19,0.508
2014-12-24 03:47:00,2024E-3,5C000000,-0724,0836,12160,028.3,045.4,0.449,733.4,01.19,0.508
2014-12-24 03:48:00,1948E-3,5C000000,-0724,0836,12018,028.3,045.4,0.448,733.4,01.19,0.508
2014-12-24 03:49:00,2046E-3,5C000000,-0724,0837,12081,028.3,045.5,0.448,733.6,01.19,0.508
2014-12-24 03:50:00,1952E-3,5C000000,-0724,0837,12113,028.3,045.5,0.448,733.5,01.19,0.508
2014-12-24 03:51:00,1917E-3,5C000000,-0724,0837,12040,028.3,045.5,0.448,733.8,01.19,0.508
2014-12-24 03:52:00,2033E-3,5C000000,-0724,0836,12023,028.3,045.5,0.449,733.7,01.19,0.508
2014-12-24 03:53:00,1950E-3,5C000000,-0724,0838,12112,028.3,045.4,0.449,733.7,01.19,0.508
2014-12-24 03:54:00,2090E-3,5C000000,-0724,0836,12006,028.3,045.4,0.448,733.7,01.19,0.508
2014-12-24 03:55:00,1921E-3,5C000000,-0724,0836,12154,028.3,045.4,0.448,733.6,01.19,0.508
2014-12-24 03:56:00,1926E-3,5C000000,-0724,0836,12128,028.3,045.4,0.448,733.6,01.19,0.508
2014-12-24 03:57:00,1990E-3,5C000000,-0724,0836,12049,028.2,045.4,0.449,733.6,01.19,0.508
2014-12-24 03:58:00,1934E-3,5C000000,-0724,0836,12156,028.2,045.5,0.449,733.8,01.19,0.508
2014-12-24 03:59:00,2010E-3,5C000000,-0724,0837,12061,028.3,045.4,0.449,733.7,01.19,0.508
2014-12-24 04:00:00,1983E-3,5C000000,-0724,0837,12121,028.2,045.4,0.448,733.5,01.19,0.508
2014-12-24 04:01:00,2061E-3,5C000000,-0724,0836,12121,028.2,045.4,0.448,733.4,01.19,0.508
2014-12-24 04:02:00,2026E-3,5C000000,-0724,0836,12196,028.2,045.4,0.448,733.5,01.19,0.508
2014-12-24 04:03:00,2105E-3,5C000000,-0724,0837,12072,028.2,045.4,0.448,733.5,01.19,0.508
2014-12-24 04:04:00,1996E-3,5C000000,-0724,0836,12118,028.2,045.4,0.448,733.6,01.19,0.508
2014-12-24 04:05:00,2207E-3,5C000000,-0724,0837,12150,028.2,045.4,0.448,733.2,01.19,0.508
2014-12-24 04:06:00,2203E-3,5C000000,-0724,0837,12005,028.1,045.4,0.449,733.6,01.19,0.508
2014-12-24 04:07:00,2000E-3,5C000000,-0724,0837,12134,028.1,045.4,0.449,734.0,01.19,0.508
2014-12-24 04:08:00,2020E-3,5C000000,-0724,0837,12244,028.2,045.4,0.449,733.6,01.19,0.508
2014-12-24 04:09:00,2042E-3,5C000000,-0724,0836,12113,028.2,045.4,0.449,733.6,01.19,0.508
2014-12-24 04:10:00,2067E-3,5C000000,-0724,0836,12134,028.1,045.4,0.449,733.9,01.19,0.508
2014-12-24 04:11:00,2030E-3,5C000000,-0724,0837,12106,028.1,045.4,0.449,733.9,01.19,0.508
2014-12-24 04:12:00,1977E-3,5C000000,-0724,0836,12205,028.1,045.4,0.449,733.9,01.19,0.508
2014-12-24 04:13:00,2144E-3,5C000000,-0724,0836,12102,028.1,045.4,0.448,733.5,01.19,0.508
2014-12-24 04:14:00,1954E-3,5C000000,-0724,0837,12183,028.1,045.4,0.448,733.6,01.19,0.508
2014-12-24 04:15:00,2027E-3,5C000000,-0724,0837,12301,028.1,045.4,0.448,733.4,01.19,0.508
2014-12-24 04:16:00,2182E-3,5C000000,-0724,0837,12327,028.1,045.4,0.449,733.5,01.19,0.508
2014-12-24 04:17:00,1948E-3,5C000000,-0724,0835,12151,028.1,045.4,0.449,733.4,01.19,0.508
2014-12-24 04:18:00,2134E-3,5C000000,-0724,0835,12176,028.1,045.4,0.449,733.6,01.19,0.508
2014-12-24 04:19:00,2009E-3,5C000000,-0724,0836,12156,028.0,045.4,0.449,733.6,01.19,0.508
2014-12-24 04:20:00,2070E-3,5C000000,-0724,0836,12087,028.0,045.4,0.449,733.7,01.19,0.508